Regional Weather Roundup
Issued by NWS

Home | Current Version | Previous Version | Graphics & Text | Print | Product List | Glossary On
Versions: 1 2 3 4 5 6 7 8 9 10 11 12 13 14 15 16 17 18 19 20 21 22 23 24 25 26 27 28 29 30 31 32 33 34 35 36 37 38 39 40 41 42 43 44 45 46 47 48 49 50
000
ASUS43 KLOT 242008
RWRIL

ILLINOIS REGIONAL WEATHER ROUNDUP
NATIONAL WEATHER SERVICE CHICAGO/ROMEOVILLE IL
300 PM CDT FRI APR 24 2015

NOTE: "FAIR" INDICATES FEW OR NO CLOUDS BELOW 12,000 FEET WITH NO
SIGNIFICANT WEATHER AND/OR OBSTRUCTIONS TO VISIBILITY.

* THESE STATIONS ARE NOT UNDER NWS QUALITY CONTROL. THEY ALSO MAY NOT
  REPORT WEATHER SUCH AS PRECIPITATION OR FOG.

ILZ001-002-007-009-015-016-024-242100-
NORTHWEST ILLINOIS

CITY           SKY/WX    TMP DP  RH WIND       PRES   REMARKS
MOLINE         CLOUDY    61  26  26 SE17G28   29.83
STERLING*      CLOUDY    61  25  25 SE12      29.89F
SAVANNA*       LGT RAIN  57  26  30 E13       29.89F
$$

ILZ003-004-008-010-011-017-018-242100-
NORTH CENTRAL ILLINOIS

CITY           SKY/WX    TMP DP  RH WIND       PRES   REMARKS
ROCKFORD       CLOUDY    54  28  36 E16       29.94F
FREEPORT*      CLOUDY    54  27  36 E16       29.94F
ROCHELLE*      CLOUDY    61  21  22 SE14G20   29.92F
DE KALB*       CLOUDY    57  21  24 E12       29.94F
PERU*          CLOUDY    64  22  19 SE13G18   29.90F
$$

ILZ005-006-012>014-019>023-242100-
NORTHEAST ILLINOIS

CITY           SKY/WX    TMP DP  RH WIND       PRES   REMARKS
CHICAGO-OHARE  CLOUDY    54  20  26 E10       29.97F
CHICAGO-MIDWAY CLOUDY    56  22  26 E12       29.97F
AURORA         CLOUDY    61  21  21 E10       29.94F
LANSING*       PTSUNNY   59  21  22 NE8       29.97F
JOLIET*        CLOUDY    64  25  23 SE5       29.94F
WAUKEGAN       CLOUDY    46  27  47 E8        29.99F
DUPAGE AIRPORT CLOUDY    57  17  21 CALM      29.95F
KANKAKEE*      CLOUDY    62  25  24 SE6       29.95F
WHEELING       CLOUDY    51  20  29 NE7       29.99F
MORRIS*        CLOUDY    64  20  18 SE9       29.91F
ROMEOVILLE*    CLOUDY    61  17  18 CALM      29.95F
NORTHERLY ISL    N/A     46  32  58 NE5         N/A
$$

LMZ740>746-242100-
SOUTHERN LAKE MICHIGAN

STATION/POSITION SKY/WX   TEMP    WIND        PRES    VSBY  WAVE
                          AIR SEA DIR/SP/G                  HT/PER
                          (F)     (DEG/KT/KT) (MB)    (MI)  (FT/S)
HARRISON CRIB              42      70/ 12/ 14   N/A
BURNHAM HARBOR             46      30/  4/  6   N/A
CALUMET HARBOR             48      40/  8/ 10   N/A
BURNS HARBOR               47      70/ 12/ 13 1016.9F
MICHIGAN CITY              45      30/ 11/ 12   N/A
MICHIGAN CITY 6N           44 44   70/  8/  8   N/A           1
$$

ILZ025>027-034>036-040-047-049-050-058-095>099-242100-
WEST-CENTRAL ILLINOIS

CITY           SKY/WX    TMP DP  RH WIND       PRES   REMARKS
QUINCY         CLOUDY    65  35  33 S15G28    29.80F
GALESBURG*     CLOUDY    63  32  31 SE14G24   29.83F
MACOMB*        CLOUDY    65  31  28 SE20G31   29.85F
JACKSONVILLE*  CLOUDY    64  33  32 S13G25    29.86F
PITTSFIELD*    CLOUDY    66  34  31 S17G28    29.85S
$$

ILZ028>032-037-038-041>044-048-051>054-059>061-242100-
CENTRAL ILLINOIS

CITY           SKY/WX    TMP DP  RH WIND       PRES   REMARKS
PONTIAC        CLOUDY    64  24  21 S12       29.93F
BLOOMINGTON    CLOUDY    62  30  30 S17G23    29.93F
DECATUR        CLOUDY    62  30  29 SE15      29.93F
PEORIA         CLOUDY    65  30  27 S18G30    29.89F
LACON*         PTSUNNY   60  23  24 S10G17    29.90F
LINCOLN*       CLOUDY    63  29  27 SE15G23   29.90F
SPRINGFIELD    CLOUDY    63  34  33 S21       29.89F
TAYLORVILLE    CLOUDY    61  32  33 S18       29.91F
$$

ILZ033-039-045-046-055>057-062-063-242100-
EAST-CENTRAL ILLINOIS

CITY           SKY/WX    TMP DP  RH WIND       PRES   REMARKS
CHAMPAIGN      CLOUDY    63  23  21 SE16      29.95F
DANVILLE*      CLOUDY    60  28  30 S9        29.95F
RANTOUL*       CLOUDY    62  24  23 SE14      29.95F
MATTOON        CLOUDY    62  29  28 S14G23    29.94F
PARIS*         CLOUDY    60  32  34 SE12      29.97F
$$

ILZ079-100>102-242100-
SOUTHWEST ILLINOIS

CITY           SKY/WX    TMP DP  RH WIND       PRES   REMARKS
ALTON          CLOUDY    61  28  29 MISG      29.91F
BELLEVILLE     CLOUDY    64  39  39 SE12G21   29.90F
CAHOKIA*       CLOUDY    65  37  35 S18G25    29.90F
SPARTA*        CLOUDY    63  36  37 S14       29.94F
$$

ILZ064>066-069>071-074>076-080>082-084>086-088>090-092>094-242100-
SOUTH-CENTRAL ILLINOIS

CITY           SKY/WX    TMP DP  RH WIND       PRES   REMARKS
CARBONDALE     CLOUDY    62  33  33 S14       29.95F
CAIRO*         CLOUDY    60  41  50 S7        29.98F
EFFINGHAM*     CLOUDY    60  25  26 E9G17     29.95F
MARION         CLOUDY    63  32  31 S16       29.96F
MT. VERNON     CLOUDY    63  30  29 SE12      29.96F
CENTRALIA*     CLOUDY    63  30  29 SE10G18   29.94F
SALEM*         CLOUDY    64  26  24 S10       29.95F
METROPOLIS*    CLOUDY    64  34  33 E6        29.96F
$$

ILZ067-068-072-073-078-083-087-091-242100-
SOUTHEAST ILLINOIS

CITY           SKY/WX    TMP DP  RH WIND       PRES   REMARKS
LAWRENCEVILLE  CLOUDY    64  31  28 SE10      29.97F
FLORA*         CLOUDY    60  33  35 S9        29.97F
FAIRFIELD*     CLOUDY    62  32  33 SE8       29.95F
HARRISBURG*    CLOUDY    63  34  33 SE10      29.97F
ROBINSON*      CLOUDY    63  28  25 SE10      29.98F
CARMI*         CLOUDY    64  24  22 SE13      29.97F
$$

ABBREVIATIONS USED IN REMARKS
   TC - TEMPERATURE IN CELSIUS
  WCI - WIND CHILL INDEX
   HX - HEAT INDEX
  VSB - VISIBILITY
$$




USA.gov is the U.S. government's official web portal to all federal, state and local government web resources and services.